Regional Weather Roundup
Issued by NWS

Home | Current Version | Previous Version | Graphics & Text | Print | Product List | Glossary On
Versions: 1 2 3 4 5 6 7 8 9 10 11 12 13 14 15 16 17 18 19 20 21 22 23 24 25 26 27 28 29 30 31 32 33 34 35 36 37 38 39 40 41 42 43 44 45 46 47 48 49 50
000
ASUS43 KBIS 290920
RWRND

NORTH DAKOTA REGIONAL WEATHER ROUNDUP
NATIONAL WEATHER SERVICE BISMARCK ND
400 AM CDT SUN MAR 29 2015

NOTE: "FAIR" INDICATES FEW OR NO CLOUDS BELOW 12,000 FEET WITH NO
SIGNIFICANT WEATHER AND/OR OBSTRUCTIONS TO VISIBILITY.


NDZ001>003-009>011-017-291000-
NORTHWEST NORTH DAKOTA

CITY           SKY/WX    TMP DP  RH WIND       PRES   REMARKS
WILLISTON      PTCLDY    38  33  82 NW21G29   29.92R
MINOT          LGT RAIN  40  34  79 NW29G38   29.71R
MINOT AFB      CLOUDY    40  40  99 NW28G35   29.71R
$$

NDZ018>021-031>035-040>046-291000-
SOUTHWEST NORTH DAKOTA

CITY           SKY/WX    TMP DP  RH WIND       PRES   REMARKS
BISMARCK       RAIN      45  43  93 NW15G24   29.63R
DICKINSON      CLOUDY    39  36  89 NW23G40   29.85R
GARRISON         N/A     40  37  89 NW30G40   29.71R
HETTINGER ARPT LGT RAIN  40  38  93 NW33G46   29.83R
$$

NDZ004>008-012>016-024-026-027-054-291000-
NORTHEAST NORTH DAKOTA

CITY           SKY/WX    TMP DP  RH WIND       PRES   REMARKS
GRAND FORKS    LGT RAIN  43  40  89 SW10      29.41F
GRND FRKS AFB  CLOUDY    46  43  87 NW17G29   29.42R
DEVILS LAKE    CLOUDY    41  36  81 N20G32    29.53R
$$

NDZ022-023-025-028>030-036>039-047>053-291000-
SOUTHEAST NORTH DAKOTA

CITY           SKY/WX    TMP DP  RH WIND       PRES   REMARKS
FARGO          CLOUDY    41  37  86 S21       29.48F
JAMESTOWN      HVY RAIN  46  42  86 W26G36    29.51R FOG
$$



USA.gov is the U.S. government's official web portal to all federal, state and local government web resources and services.